User: anonymous   Login
Location: Sungai Dangang
(2.7500°N, 113.8333°E)
Time: 00:34:07
(UTC+00:00)
Language:

Ariane H10+ - Orbit

View from above orbital plane
View from above orbital plane
View from above satellite
View from above satellite

Ground track
Ground track

The orbit data is extracted from the following two-line orbital elements,

1 23538U 95016C   21212.31872474  .00005256  00000-0  84078-3 0  9994
2 23538   6.5602  70.2854 6451102 259.1406  27.0620  3.39866671262459
Epoch (UTC): 31 July 2021 07:38:57
Eccentricity: 0.6451102
inclination: 6.5602°
perigee height: 253 km
apogee height: 24363 km
right ascension of ascending node: 70.2854°
argument of perigee: 259.1406°
revolutions per day: 3.39866671
mean anomaly at epoch: 27.0620°
orbit number at epoch: 26245

The dashed part of the orbit path shows where the satellite is in the earth's shadow,  

DLR